This is the latest recevied weather packets stored in our database for station/object K7DC. If no packets are shown the sender has not sent any weather packets the latest 10 day(s).
| Time | Temp. | Humidity | Pressure | Rain* | Wind** | Luminosity | Snow |
|---|---|---|---|---|---|---|---|
| 1776948808 | 12.22° C | 49% | 1014.3 hPa | 0 mm | - | 6 W/m² | - |
| 1776948504 | 12.22° C | 49% | 1014.4 hPa | 0 mm | - | 4 W/m² | - |
| 1776948201 | 12.22° C | 50% | 1014.2 hPa | 0 mm | - | 2 W/m² | - |
| 1776947900 | 11.67° C | 50% | 1014.3 hPa | 0 mm | - | 1 W/m² | - |
| 1776947595 | 11.67° C | 51% | 1014.2 hPa | 0 mm | - | 0 W/m² | - |
| 1776947293 | 11.67° C | 51% | 1014.3 hPa | 0 mm | - | 0 W/m² | - |
| 1776946989 | 12.22° C | 50% | 1014.2 hPa | 0 mm | - | 0 W/m² | - |
| 1776946686 | 12.22° C | 51% | 1014.3 hPa | 0 mm | - | 0 W/m² | - |
| 1776946383 | 12.22° C | 51% | 1014.3 hPa | 0 mm | - | 0 W/m² | - |
| 1776946080 | 11.67° C | 51% | 1014.1 hPa | 0 mm | - | 0 W/m² | - |
| 1776945776 | 12.22° C | 51% | 1014.1 hPa | 0 mm | - | 0 W/m² | - |
| 1776945472 | 12.22° C | 49% | 1014.2 hPa | 0 mm | - | 0 W/m² | - |
| 1776945169 | 12.22° C | 48% | 1014 hPa | 0 mm | - | 0 W/m² | - |
| 1776944867 | 12.22° C | 49% | 1014.1 hPa | 0 mm | - | 0 W/m² | - |
| 1776944565 | 12.22° C | 50% | 1013.9 hPa | 0 mm | - | 0 W/m² | - |
| 1776944261 | 11.67° C | 50% | 1013.7 hPa | 0 mm | - | 0 W/m² | - |
| 1776943957 | 11.67° C | 49% | 1013.9 hPa | 0 mm | - | 0 W/m² | - |
| 1776943652 | 11.67° C | 49% | 1013.9 hPa | 0 mm | - | 0 W/m² | - |
| 1776943349 | 11.11° C | 48% | 1014 hPa | 0 mm | - | 0 W/m² | - |
| 1776943045 | 11.11° C | 48% | 1014 hPa | 0 mm | - | 0 W/m² | - |
| 1776942741 | 10.56° C | 50% | 1014.1 hPa | 0 mm | - | 0 W/m² | - |
| 1776942437 | 10.56° C | 49% | 1014.1 hPa | 0 mm | - | 0 W/m² | - |
| 1776942134 | 10.56° C | 48% | 1013.9 hPa | 0 mm | - | 0 W/m² | - |
| 1776941833 | 11.11° C | 47% | 1014 hPa | 0 mm | - | 0 W/m² | - |
| 1776941528 | 11.67° C | 46% | 1014.2 hPa | 0 mm | - | 0 W/m² | - |
* Rain latest hour (hover to see other rain measurements)
** Current wind speed in m/s (hover to see current wind gust speed)